{"data":{"norad_id":54243,"intl_designator":"2022-153A","name":"GALAXY 31 (G-31)","alt_names":[],"object_type":"PAYLOAD","status":"ACTIVE","operator":null,"country":"ITSO","launch_date":"2022-11-12","launch_site_code":"AFETR","launch_vehicle":null,"mission":null,"orbit_class":"UNKNOWN","rcs_meters":null,"size_class":null,"mass_kg":null,"dimensions":null,"purposes":["comms"],"wikipedia_slug":null,"has_3d_model":false,"image_url":null,"decayed_at":null,"tle_current":{"epoch":"2026-09-20T04:02:38.833728Z","epoch_age_seconds":43023,"freshness":"FRESH","line1":"1 54243U 22153A   26263.16850502  .00000009  00000+0  00000+0 0  9994","line2":"2 54243   0.0160 181.6038 0001349 343.9577 133.1765  1.00271622  8082","mean_motion":1.00271622,"eccentricity":0.0001349,"inclination_deg":0.016,"raan_deg":181.6038,"arg_perigee_deg":343.9577,"mean_anomaly_deg":133.1765,"bstar":0,"rev_number":808,"period_min":1436.0992385263,"perigee_km":35780.952627564,"apogee_km":35792.328684575,"semimajor_km":42164.77765607,"source":"CELESTRAK","updated_at":"2026-09-20T09:00:35.525349Z"}}}